Weather reports worldwide

Advertisment
Bastia, France (7790): temperature & dewpoint: 18.06.2018 11:00:00 - 24.06.2018 11:00:00 (CEST)Bastia, France (7790): temperature 5cm: 18.06.2018 11:00:00 - 24.06.2018 11:00:00 (CEST)Bastia, France (7790): temperature -20cm & temperature -100cm: 18.06.2018 11:00:00 - 24.06.2018 11:00:00 (CEST)Bastia, France (7790): wind speed & gusts: 18.06.2018 11:00:00 - 24.06.2018 11:00:00 (CEST)Bastia, France (7790): wind direction: 18.06.2018 11:00:00 - 24.06.2018 11:00:00 (CEST)Bastia, France (7790): reduced air pressure: 18.06.2018 11:00:00 - 24.06.2018 11:00:00 (CEST)Bastia, France (7790): visibility: 18.06.2018 11:00:00 - 24.06.2018 11:00:00 (CEST)Bastia, France (7790): sunshine duration: 18.06.2018 11:00:00 - 24.06.2018 11:00:00 (CEST)Bastia, France (7790): precipitation: 18.06.2018 11:00:00 - 24.06.2018 11:00:00 (CEST)
Date & Time tt [°C] td [°C] tt 5cm [°C] tt -20cm [°C] tt -100cm [°C] ff [km/h] ff [kn] fx [km/h] fx [kn] dd ppp [hPa] vv [km] sd [min] rr [mm]
24.06.2018 11:00:00 25,2 16,9 29,2 25,5 21,5 13 7 21 12 ESE 1017,0 60 48 0,0
24.06.2018 10:00:00 24,5 18,0 28,2 25,6 21,5 8 4 16 9 E 1016,9 60 28 0,0
24.06.2018 09:00:00 24,1 18,3 23,3 25,7 21,5 7 4 12 7 ESE 1017,0 58 47 0,0
24.06.2018 08:00:00 20,6 16,0 20,0 25,8 21,4 5 3 9 5 SW 1016,8 60 57 0,0
24.06.2018 07:00:00 18,8 14,9 16,3 25,9 21,5 5 3 8 4 SW 1016,7 60 50 0,0
24.06.2018 06:00:00 17,4 13,9 15,7 26,0 21,4 6 3 11 6 SW 1016,5 60 0 0,0
24.06.2018 05:00:00 17,5 13,6 15,2 26,1 21,4 7 4 15 8 SW 1016,5 60 0 0,0
24.06.2018 04:00:00 17,2 13,5 14,3 26,3 21,5 8 5 10 5 SSW 1016,4 60 0 0,0
24.06.2018 03:00:00 17,1 13,8 15,0 26,3 21,4 7 4 10 6 SSW 1016,6 60 0 0,0
24.06.2018 02:00:00 17,8 14,7 16,2 26,4 21,4 8 4 10 5 SW 1016,8 60 0 0,0
24.06.2018 01:00:00 18,0 14,9 16,5 26,4 21,4 6 4 10 5 SW 1017,2 60 0 0,0
24.06.2018 00:00:00 18,8 15,1 16,5 26,4 21,4 8 4 10 5 SW 1017,2 60 0 0,0
23.06.2018 23:00:00 19,1 15,4 17,2 26,3 21,4 7 4 10 5 SW 1017,0 60 0 0,0
23.06.2018 22:00:00 20,0 15,8 18,0 26,3 21,4 5 3 9 5 SW 1016,5 20 0 0,0
23.06.2018 21:00:00 22,7 14,8 20,2 26,1 21,4 6 3 14 8 W 1016,0 20 27 0,0
23.06.2018 20:00:00 25,0 15,3 26,8 26,0 21,4 11 6 34 18 NNE 1015,8 59 60 0,0
23.06.2018 19:00:00 25,9 12,7 30,0 25,8 21,3 12 7 31 17 NNE 1015,7 57 60 0,0
23.06.2018 18:00:00 26,2 14,0 30,5 25,7 21,3 12 6 26 14 NNE 1016,0 60 60 0,0
23.06.2018 17:00:00 26,7 15,1 35,8 25,6 21,3 14 8 39 21 NNE 1016,4 60 60 0,0
23.06.2018 16:00:00 26,4 14,5 35,1 25,5 21,2 14 7 40 22 N 1016,5 60 60 0,0
23.06.2018 15:00:00 26,4 14,2 35,0 25,4 21,2 17 9 33 18 N 1016,8 60 60 0,0
23.06.2018 14:00:00 26,3 15,0 32,2 25,4 21,2 17 9 37 20 N 1017,2 60 55 0,0
23.06.2018 13:00:00 25,8 15,5 30,8 25,4 21,2 18 10 32 17 N 1017,5 60 44 0,0
23.06.2018 12:00:00 25,0 15,6 31,4 25,4 21,2 15 8 41 22 N 1017,4 59 42 0,0
23.06.2018 11:00:00 25,2 16,9 29,2 25,5 21,2 16 9 28 15 N 1017,1 42 49 0,0
23.06.2018 10:00:00 24,6 17,1 24,5 25,6 21,2 16 8 36 19 N 1017,1 60 32 0,0
23.06.2018 09:00:00 23,1 15,2 23,7 25,6 21,2 13 7 26 14 N 1016,9 59 19 0,0
23.06.2018 08:00:00 24,2 17,7 22,7 25,7 21,2 16 8 22 12 NNE 1016,5 56 27 0,0
23.06.2018 07:00:00 23,3 18,6 21,0 25,8 21,2 4 2 7 4 ENE 1016,1 9 50 0,0
23.06.2018 06:00:00 22,4 19,9 20,6 25,9 21,2 5 3 18 10 ESE 1015,5 20 0 0,0
23.06.2018 05:00:00 22,1 19,6 20,2 25,9 21,2 5 3 9 5 WSW 1015,0 33 0 0,0
23.06.2018 04:00:00 21,4 19,3 19,8 26,0 21,2 3 2 9 5 SW 1014,8 16 0 0,0
23.06.2018 03:00:00 22,0 19,7 19,8 26,0 21,2 7 4 10 5 WSW 1014,7 31 0 0,0
23.06.2018 02:00:00 22,1 20,4 20,4 26,1 21,2 4 2 6 3 WSW 1014,7 12 0 0,0
23.06.2018 01:00:00 22,1 20,2 19,6 26,1 21,1 0 0 6 3 N 1014,3 15 0 0,0
23.06.2018 00:00:00 22,9 20,4 21,7 26,1 21,2 5 3 19 10 S 1013,8 19 0 0,0
22.06.2018 23:00:00 23,8 21,1 21,3 26,1 21,2 14 7 22 12 N 1013,4 31 0 0,0
22.06.2018 22:00:00 24,3 20,8 22,7 26,0 21,1 18 10 25 14 N 1012,8 34 0 0,0
22.06.2018 21:00:00 24,3 20,2 23,1 25,9 21,1 13 7 26 14 N 1012,1 37 16 0,0
22.06.2018 20:00:00 25,0 19,4 24,8 25,8 21,1 20 11 31 17 N 1011,6 44 36 0,0
22.06.2018 19:00:00 26,1 20,0 26,6 25,6 21,1 18 10 35 19 N 1011,3 45 21 0,0
22.06.2018 18:00:00 26,2 20,5 30,1 25,5 21,0 14 7 27 15 N 1011,0 48 60 0,0
22.06.2018 17:00:00 26,3 21,5 30,6 25,3 21,0 18 10 31 17 N 1011,2 34 24 0,0
22.06.2018 16:00:00 27,3 21,3 32,8 25,2 21,0 19 11 39 21 NNE 1011,3 20 46 0,0
22.06.2018 15:00:00 26,5 20,8 31,4 25,2 21,0 16 9 26 14 NNE 1011,4 39 25 0,0
22.06.2018 14:00:00 27,2 20,0 34,9 25,2 21,0 14 7 24 13 NNE 1011,6 50 54 0,0
22.06.2018 13:00:00 27,6 20,7 37,3 25,1 21,0 10 5 25 14 E 1011,7 20 60 0,0
22.06.2018 12:00:00 27,1 21,2 33,5 25,1 20,9 10 5 21 11 NNE 1012,2 20 50 0,0
22.06.2018 11:00:00 26,4 20,9 31,0 25,2 21,0 9 5 18 10 ENE 1012,3 20 22 0,0
22.06.2018 10:00:00 26,1 20,9 28,0 25,3 21,0 6 3 16 9 SSE 1012,2 20 54 0,0
22.06.2018 09:00:00 24,5 19,1 26,2 25,4 20,9 4 2 8 5 S 1012,5 19 20 0,0
22.06.2018 08:00:00 23,1 17,3 21,1 25,5 21,0 5 3 10 5 SSW 1012,8 42 42 0,0
22.06.2018 07:00:00 20,5 16,7 18,1 25,6 20,9 5 3 8 4 SW 1012,7 49 12 0,0
22.06.2018 06:00:00 20,0 16,2 18,3 25,7 21,0 4 2 16 8 SSW 1012,5 50 0 0,0
22.06.2018 05:00:00 22,1 16,1 19,5 25,8 20,9 10 6 22 12 SSW 1012,7 60 0 0,0
22.06.2018 04:00:00 21,9 16,6 19,9 25,8 20,9 11 6 23 12 SSW 1013,3 55 0 0,0
22.06.2018 03:00:00 21,3 17,3 19,8 25,9 20,9 15 8 23 13 SSW 1014,0 49 0 0,0
22.06.2018 02:00:00 20,9 17,9 18,9 25,9 20,9 13 7 22 12 S 1014,4 41 0 0,0
22.06.2018 01:00:00 21,2 18,2 18,6 25,9 20,9 5 3 17 9 SSW 1014,9 35 0 0,0
22.06.2018 00:00:00 20,5 18,8 18,4 25,9 20,9 5 3 12 6 S 1014,9 15 0 0,0
21.06.2018 23:00:00 21,8 20,6 18,9 25,8 20,9 5 3 7 4 SW 1015,1 8 0 0,0
21.06.2018 22:00:00 22,7 20,6 20,0 25,7 20,9 4 2 8 5 SE 1015,1 8 0 0,0
21.06.2018 21:00:00 24,1 20,8 22,8 25,5 20,9 7 4 10 5 E 1015,0 17 28 0,0
21.06.2018 20:00:00 25,8 20,6 26,9 25,3 20,8 7 4 16 8 SE 1014,7 19 37 0,0
21.06.2018 19:00:00 26,7 20,3 28,7 25,1 20,8 11 6 18 10 SE 1014,7 20 55 0,0
21.06.2018 18:00:00 27,7 17,8 31,4 25,0 20,8 9 5 18 10 SE 1014,9 20 52 0,0
21.06.2018 17:00:00 28,1 18,8 36,6 24,8 20,8 9 5 19 11 SE 1015,5 19 60 0,0
21.06.2018 16:00:00 27,9 20,2 36,1 24,6 20,8 13 7 24 13 ESE 1015,7 19 60 0,0
21.06.2018 15:00:00 28,0 19,8 37,2 24,6 20,8 14 8 23 12 SE 1016,0 20 60 0,0
21.06.2018 14:00:00 27,5 19,8 36,8 24,5 20,8 14 8 25 14 SE 1016,5 20 60 0,0
21.06.2018 13:00:00 28,1 19,3 37,4 24,5 20,7 13 7 22 12 SE 1016,9 20 60 0,0
21.06.2018 12:00:00 28,3 19,0 36,6 24,5 20,7 12 6 20 11 ESE 1017,1 19 60 0,0
21.06.2018 11:00:00 27,8 17,3 35,1 24,6 20,7 13 7 21 12 ESE 1017,3 20 60 0,0
21.06.2018 10:00:00 28,0 17,8 31,5 24,7 20,7 7 4 20 11 ESE 1017,2 19 60 0,0
21.06.2018 09:00:00 25,6 16,2 27,0 24,7 20,7 15 8 22 12 S 1017,2 60 60 0,0
21.06.2018 08:00:00 23,6 15,1 22,4 24,9 20,7 11 6 18 10 SSW 1017,1 45 60 0,0
21.06.2018 07:00:00 21,6 15,2 17,7 25,0 20,7 5 3 13 7 SSW 1017,2 20 50 0,0
21.06.2018 06:00:00 19,6 14,6 16,9 25,0 20,7 7 4 14 8 SW 1017,2 46 0 0,0
21.06.2018 05:00:00 19,2 15,1 16,6 25,1 20,7 7 4 10 5 SSW 1017,3 45 0 0,0
21.06.2018 04:00:00 19,2 15,9 15,8 25,2 20,7 5 3 9 5 SW 1017,3 38 0 0,0
21.06.2018 03:00:00 19,2 16,1 15,7 25,2 20,7 3 2 8 4 SW 1017,8 27 0 0,0
21.06.2018 02:00:00 19,5 15,8 17,7 25,2 20,7 5 3 10 6 SSW 1017,8 42 0 0,0
21.06.2018 01:00:00 19,8 16,4 17,8 25,3 20,7 5 3 9 5 SSW 1018,1 42 0 0,0
21.06.2018 00:00:00 20,5 16,5 18,7 25,2 20,7 5 3 9 5 SW 1018,4 20 0 0,0
20.06.2018 23:00:00 21,1 17,1 19,3 25,2 20,7 6 3 9 5 SW 1018,7 18 0 0,0
20.06.2018 22:00:00 22,7 17,8 19,8 25,0 20,7 4 2 8 4 SW 1018,2 17 0 0,0
20.06.2018 21:00:00 24,2 17,0 21,7 24,9 20,7 5 3 8 5 SE 1017,8 16 27 0,0
20.06.2018 20:00:00 26,7 16,3 28,7 24,7 20,6 7 4 11 6 E 1017,7 59 60 0,0
20.06.2018 19:00:00 28,3 15,2 32,9 24,5 20,6 7 4 12 7 E 1017,4 19 60 0,0
20.06.2018 18:00:00 28,7 15,2 33,0 24,3 20,6 6 4 15 8 NE 1017,5 20 60 0,0
20.06.2018 17:00:00 28,8 14,6 39,0 24,1 20,6 6 3 19 10 ENE 1017,9 20 60 0,0
20.06.2018 16:00:00 28,9 13,9 39,5 24,0 20,6 9 5 22 12 NE 1018,4 20 60 0,0
20.06.2018 15:00:00 28,7 13,8 39,6 24,0 20,6 10 5 35 19 NE 1018,6 19 60 0,0
20.06.2018 14:00:00 28,2 13,7 39,3 23,9 20,6 14 8 26 14 NE 1018,9 60 60 0,0
20.06.2018 13:00:00 28,9 15,1 37,9 23,9 20,5 11 6 25 14 NE 1019,3 60 60 0,0
20.06.2018 12:00:00 28,3 16,2 36,4 24,0 20,6 12 6 20 11 NNE 1019,4 19 60 0,0
20.06.2018 11:00:00 27,2 17,1 33,1 24,0 20,6 9 5 22 12 N 1019,4 20 60 0,0
20.06.2018 10:00:00 27,0 16,0 25,6 24,1 20,6 12 6 24 13 NE 1019,2 47 60 0,0
20.06.2018 09:00:00 27,2 16,5 22,8 24,2 20,6 13 7 26 14 N 1019,2 18 60 0,0
20.06.2018 08:00:00 24,5 15,4 17,9 24,3 20,6 5 3 12 7 WSW 1018,9 50 60 0,0
20.06.2018 07:00:00 21,8 15,4 15,3 24,4 20,6 5 3 11 6 WSW 1018,7 50 51 0,0
20.06.2018 06:00:00 19,5 13,9 14,6 24,5 20,6 10 5 14 8 WSW 1018,3 60 0 0,0
20.06.2018 05:00:00 19,0 14,5 15,4 24,6 20,6 9 5 11 6 WSW 1018,3 59 0 0,0
20.06.2018 04:00:00 19,4 15,1 15,9 24,7 20,6 8 4 11 6 SW 1018,5 57 0 0,0
20.06.2018 03:00:00 20,6 14,5 16,1 24,7 20,6 9 5 16 9 WSW 1018,6 59 0 0,0
20.06.2018 02:00:00 19,8 15,2 16,2 24,8 20,6 5 3 10 5 SSW 1018,6 56 0 0,0
20.06.2018 01:00:00 20,4 15,6 17,0 24,8 20,5 7 4 11 6 SW 1018,7 58 0 0,0
20.06.2018 00:00:00 21,7 15,3 17,7 24,8 20,5 8 4 11 6 SW 1018,7 57 0 0,0
19.06.2018 23:00:00 21,7 16,4 19,1 24,7 20,5 5 3 11 6 SSW 1018,4 54 0 0,0
19.06.2018 22:00:00 22,7 16,5 19,1 24,7 20,5 6 3 11 6 SW 1017,8 56 0 0,0
19.06.2018 21:00:00 25,5 17,4 21,3 24,6 20,5 3 2 28 15 W 1017,4 17 27 0,0
19.06.2018 20:00:00 27,8 17,6 25,4 24,4 20,5 10 6 17 9 N 1017,2 54 60 0,0
19.06.2018 19:00:00 30,3 14,4 29,3 24,2 20,4 10 5 18 10 N 1017,0 41 60 0,0
19.06.2018 18:00:00 30,5 14,6 30,7 24,1 20,4 10 6 27 14 NNW 1017,3 57 60 0,0
19.06.2018 17:00:00 30,7 13,9 37,6 23,9 20,4 13 7 20 11 N 1017,8 20 60 0,0
19.06.2018 16:00:00 31,0 14,2 40,2 23,7 20,3 12 7 21 12 N 1018,0 52 60 0,0
19.06.2018 15:00:00 30,4 14,9 39,1 23,6 20,3 11 6 23 12 N 1018,3 53 60 0,0
19.06.2018 14:00:00 29,9 14,0 40,7 23,5 20,2 11 6 22 12 N 1018,7 49 60 0,0
19.06.2018 13:00:00 29,2 15,3 38,9 23,5 20,3 11 6 30 16 NE 1019,0 20 60 0,0
19.06.2018 12:00:00 28,7 16,3 36,2 23,5 20,3 14 7 24 13 N 1019,1 20 60 0,0
19.06.2018 11:00:00 28,2 16,5 30,0 23,6 20,3 15 8 25 14 N 1019,1 20 60 0,0
19.06.2018 10:00:00 28,0 16,0 26,5 23,7 20,3 10 6 18 10 N 1019,2 43 60 0,0
19.06.2018 09:00:00 25,8 17,2 22,6 23,8 20,3 7 4 13 7 SSW 1018,8 20 60 0,0
19.06.2018 08:00:00 23,4 16,9 18,2 23,9 20,4 6 3 11 6 SW 1018,5 38 60 0,0
19.06.2018 07:00:00 21,0 15,5 15,5 24,0 20,4 7 4 14 8 SW 1018,2 30 51 0,0
19.06.2018 06:00:00 19,0 14,5 15,2 24,1 20,4 8 5 12 6 SW 1017,7 48 0 0,0
19.06.2018 05:00:00 18,6 14,5 15,6 24,2 20,4 8 4 11 6 SSW 1017,5 48 0 0,0
19.06.2018 04:00:00 19,2 14,5 16,2 24,3 20,4 8 5 12 7 SSW 1017,4 51 0 0,0
19.06.2018 03:00:00 19,5 14,7 15,9 24,3 20,4 9 5 11 6 SW 1017,3 53 0 0,0
19.06.2018 02:00:00 19,4 14,9 16,2 24,4 20,3 8 4 13 7 SW 1017,0 50 0 0,0
19.06.2018 01:00:00 19,6 14,8 16,2 24,4 20,3 8 4 10 5 SSW 1017,3 51 0 0,0
19.06.2018 00:00:00 20,2 15,6 16,6 24,4 20,3 6 3 9 5 SW 1017,0 50 0 0,0
18.06.2018 23:00:00 21,1 16,1 17,1 24,3 20,3 6 4 9 5 SW 1016,7 44 0 0,0
18.06.2018 22:00:00 22,6 16,4 18,1 24,3 20,3 5 3 9 5 WSW 1016,1 33 0 0,0
18.06.2018 21:00:00 24,7 17,7 20,4 24,2 20,3 4 2 14 8 WSW 1015,4 20 26 0,0
18.06.2018 20:00:00 27,1 17,8 24,8 24,0 20,2 7 4 18 10 N 1015,2 50 60 0,0
18.06.2018 19:00:00 27,4 17,3 29,2 23,9 20,2 16 8 25 14 NNW 1015,0 50 60 0,0
18.06.2018 18:00:00 28,2 18,0 29,8 23,7 20,1 16 9 23 12 N 1014,9 50 60 0,0
18.06.2018 17:00:00 28,0 19,5 36,7 23,5 20,1 16 9 23 13 N 1015,1 45 60 0,0
18.06.2018 16:00:00 28,1 18,8 38,4 23,3 20,1 15 8 35 19 N 1015,3 48 60 0,0
18.06.2018 15:00:00 27,9 19,7 37,5 23,2 20,1 15 8 30 16 NNE 1015,5 19 60 0,0
18.06.2018 14:00:00 26,8 20,2 38,2 23,2 20,1 16 8 26 14 N 1015,8 36 60 0,0
18.06.2018 13:00:00 26,4 19,3 38,2 23,2 20,1 16 8 26 14 NNE 1016,0 20 60 0,0
18.06.2018 12:00:00 26,3 19,9 36,2 23,2 20,1 17 9 26 14 NNE 1016,0 39 60 0,0
18.06.2018 11:00:00 25,9 19,8 30,5 23,2 20,1 11 6 32 17 NE 1015,6 20 60 0,0

tt = temperature
td = dewpoint
tt 5cm = temperature 5cm
tt -20cm = temperature -20cm
tt -100cm = temperature -100cm
ff = wind speed
fx = gusts
dd = wind direction
ppp = reduced air pressure
vv = visibility
sd = sunshine duration
rr = precipitation

Next stations